Regional Weather Roundup
Issued by NWS

Current Version | Previous Version | Text Only | Print | Product List | Glossary On
Versions: 1 2 3 4 5 6 7 8 9 10 11 12 13 14 15 16 17 18 19 20 21 22 23 24 25 26 27 28 29 30 31 32 33 34 35 36 37 38 39 40 41 42 43 44 45 46 47 48 49 50
353
ASUS44 KLIX 251511
RWRLA
LOUISIANA WEATHER ROUNDUP
NATIONAL WEATHER SERVICE NEW ORLEANS LA
1000 AM CDT THU AUG 25 2016

NOTE: "FAIR" INDICATES FEW OR NO CLOUDS BELOW 12,000 FEET WITH NO
      SIGNIFICANT WEATHER AND/OR OBSTRUCTIONS TO VISIBILITY.
      SKY/WX - SKY CONDITION AND SIGNIFICANT WEATHER.
      TMP - AIR TEMPERATURE.    DP   - DEWPOINT TEMPERATURE.
      RH  - RELATIVE HUMIDITY.  PRES - PRESSURE.
      HX  - HEAT INDEX.         WCI  - WIND CHILL INDEX.

*  THESE STATIONS ARE NOT NWS OR FAA STATIONS AND ARE NOT UNDER
   NWS QUALITY CONTROL.

LAZ040-048-061>063-065-066-069-251600-
SOUTHEAST LOUISIANA

CITY           SKY/WX    TMP DP  RH WIND       PRES   REMARKS
N.O. AUDUBON   NOT AVBL
N.O. INTL ARPT MOSUNNY   88  78  72 NE9       30.10S HX 101
N.O. LAKEFRONT MOSUNNY   87  79  76 NE13      30.10F HX 101
N.O. DOWNTOWN* LGT RAIN  83  78  85 CALM      30.11S
RESERVE*       LGT RAIN  84  79  85 E8        30.10F HX  95
SLIDELL        MOSUNNY   87  79  76 E7        30.11R HX 101
BATON ROUGE    MOSUNNY   86  78  77 VRB6      30.11S HX  98
BOOTHVILLE     MOSUNNY   88  77  69 E10       30.10R HX 100
BELLE CHASSE   PTSUNNY   88  78  72 E8        30.09F HX 101
BOGALUSA*      FAIR      87  78  73 NE6       30.14S HX  99
GALLIANO*      MOSUNNY   86  78  79 CALM      30.09F HX  98
NEW ROADS*     FAIR      85  78  81 E5        30.11S HX  96
GONZALES*      FAIR      86  80  80 CALM      30.09F HX 100
HAMMOND*       SUNNY     88  75  66 CALM      30.11S HX  97
HOUMA*         NOT AVBL
PORT FOURCHON* PTSUNNY   82  75  78 SE9       30.09R

$$

LAZ041-044-053-054-251600-
SOUTHWEST LOUISIANA

CITY           SKY/WX    TMP DP  RH WIND       PRES   REMARKS
LAKE CHARLES   MOSUNNY   86  78  77 NE6       30.09S HX  98
LAFAYETTE      CLOUDY    85  82  91 VRB3      30.09F HX 102
PATTERSON      MOSUNNY   86  80  82 E5        30.09F HX 101
SALT POINT       N/A     88  79  74 E5        30.07S HX 103
NEW IBERIA     CLOUDY    86  79  79 E6        30.09F HX  99
CHENAULT AIRPK PTSUNNY   86  81  84 NE5       30.10S HX 102

$$

LAZ027-028-251600-
CENTRAL LOUISIANA

CITY           SKY/WX    TMP DP  RH WIND       PRES   REMARKS
FORT POLK      MOSUNNY   85  75  72 SE3       30.10S
ALEXANDRIA INT SUNNY     84  76  76 CALM      30.08F
ALEXANDRIA     SUNNY     84  78  82 CALM      30.10F HX  95

$$

LAZ001-002-251600-
NORTHWEST LOUISIANA

CITY           SKY/WX    TMP DP  RH WIND       PRES   REMARKS
SHREVEPORT     CLOUDY    84  78  82 SW5       30.11R HX  95
BARKSDALE AFB  CLOUDY    85  77  75 VRB3      30.11R HX  95
DTN SHREVEPORT PTSUNNY   86  76  71 W6        30.11R HX  96

$$

LAZ014-016-251600-
NORTHEAST LOUISIANA

CITY           SKY/WX    TMP DP  RH WIND       PRES   REMARKS
MONROE         SUNNY     85  79  82 CALM      30.12S HX  98
TALLULAH       SUNNY     87  75  67 VRB5      30.13S HX  96

$$





USA.gov is the U.S. government's official web portal to all federal, state and local government web resources and services.